STARLINK-2130 (47405 NORAD) Tracking and Keplerian Element Data

This shows tracking and keplerian element data for the satellite.

Feedback or suggestion? Click here.




ElementValue
Catalog47405
NameSTARLINK-2130
Epoch Orbit181
Epoch Day99.91667824
Epoch Year2021
RAAN198.6579
Inclination53.0527
Eccentricity9.59E-05
Argument of Perigee105.5329
Mean Anonmoly280.5716
Mean Motion15.06417522
Decay Rate-0.00036745
L11 47405U 21005BJ 21099.91667824 -.00036745 00000-0 -24596-2 0 9997
L22 47405 53.0527 198.6579 0000959 105.5329 280.5716 15.06417522 1819

Live tracking and technical data element details for STARLINK-2130 (NORAD 47405). STARLINK-2130 can be tracked NOW for your location showing map with azimuth and elevation plus other details from your city location.

Track the satellite on the map from your city or location and see movement details for azimuth, elevation, latitude, longitude, range, height, and movement on the map or in text.







IsCatalogInMostPopularTable: catalog: 47405, numindb: 17
Update: records affected: 1



GetName: 47405 STARLINK-2130

Hit Count: updated at: Sat, 10 Apr 2021 19:35:55 GMT